Regional Weather Roundup
Issued by NWS

Home | Current Version | Previous Version | Text Only | Print | Product List | Glossary Off
Versions: 1 2 3 4 5 6 7 8 9 10 11 12 13 14 15 16 17 18 19 20 21 22 23 24 25 26 27 28 29 30 31 32 33 34 35 36 37 38 39 40 41 42 43 44 45 46 47 48 49 50

000
ASUS43 KMKX 272000
RWRWI

WISCONSIN REGIONAL WEATHER ROUNDUP
NATIONAL WEATHER SERVICE MILWAUKEE/SULLIVAN WI
300 PM CDT THU JUL 27 2017

NOTE: "FAIR" INDICATES FEW OR NO CLOUDS BELOW 12,000 FEET WITH NO
SIGNIFICANT WEATHER AND/OR OBSTRUCTIONS TO VISIBILITY.

WIZ001-002-006>008-014>016-023>028-272100-
NORTHWEST WISCONSIN

CITY           SKY/WX    TMP DP  RH WIND       PRES   REMARKS
SUPERIOR ARPT  NOT AVBL
ASHLAND        MOSUNNY   80  61  52 N9        30.09S HX  81
HAYWARD        PTSUNNY   81  56  42 N12G17    30.09S HX  81
SIREN          MOSUNNY   80  54  40 NW5       30.08F HX  80
CUMBERLAND     PTSUNNY   79  54  41 E6        30.08F
RICE LAKE      PTSUNNY   81  56  41 N8        30.09S HX  81
CHETEK         PTSUNNY   80  60  51 N3        30.07S HX  80
LADYSMITH      CLOUDY    81  58  45 NW6       30.09S HX  81
EAU CLAIRE     NOT AVBL
MENOMONIE      SUNNY     82  55  39 N6        30.05F HX  82
NEW RICHMOND   MOSUNNY   82  57  42 NE8       30.07F HX  81
OSCEOLA        MOSUNNY   82  58  43 NE9       30.10F HX  82
$$

WIZ003>005-009-010-017-018-272100-
NORTH CENTRAL WISCONSIN

CITY           SKY/WX    TMP DP  RH WIND       PRES   REMARKS
MANITOWISH WTR CLOUDY    81  54  39 N7        30.08S HX  80
ARBOR VITAE    PTSUNNY   77  56  48 NE3       30.07S
WOODRUFF       PTSUNNY   77  56  48 NE3       30.07S
RHINELANDER    CLOUDY    79  56  45 N6        30.08S HX  80
EAGLE RIVER    CLOUDY    77  55  46 NE6       30.08S
LAND O LAKES   CLOUDY    79  54  42 N8        30.10S HX  80
PHILLIPS       PTSUNNY   78  57  48 N5        30.07F
TOMAHAWK         N/A     79  55  43 CALM      30.07S
MEDFORD        PTSUNNY   78  56  45 NE7       30.06S
MERRILL        PTSUNNY   77  61  57 NE6       30.06S
$$

WIZ029-030-035-036-043>047-272100-
CENTRAL WISCONSIN

CITY           SKY/WX    TMP DP  RH WIND       PRES   REMARKS
WAUSAU         PTSUNNY   80  58  46 S6        30.03F HX  80
MOSINEE        NOT AVBL
MARSHFIELD     PTSUNNY   79  58  48 E5        30.04F HX  80
STEVENS POINT  PTSUNNY   80  59  47 E8        30.04F HX  81
WAUPACA        MOSUNNY   84  58  40 NE9       30.03S HX  84
WAUTOMA        LGT RAIN  82  62  50 E10G16    30.02  HX  83
WISC RAPIDS    MOSUNNY   83  61  47 VRB6      30.04F HX  83
CAMP DOUGLAS   NOT AVBL
$$

WIZ011>013-019>022-031-037>040-048>050-272100-
NORTHEAST WISCONSIN

CITY           SKY/WX    TMP DP  RH WIND       PRES   REMARKS
ANTIGO         CLOUDY    76  59  57 CALM      30.07S
SHAWANO        SUNNY     83  58  42 NE5       30.03S HX  82
OCONTO         SUNNY     77  59  54 E6        30.02S
STURGEON BAY     N/A     77  60  55 MISG      30.03F
GREEN BAY      SUNNY     79  58  48 NE14      30.03S HX  80
MANITOWOC      NOT AVBL
APPLETON       MOSUNNY   79  52  38 MISG      30.02S
CLINTONVILLE   MOSUNNY  N/A N/A N/A E3        30.03S
OSHKOSH        SUNNY     80  61  52 NE7       30.02R HX  81
$$

WIZ032>034-041-042-053>061-272100-
SOUTHWEST WISCONSIN

CITY           SKY/WX    TMP DP  RH WIND       PRES   REMARKS
LA CROSSE      PTSUNNY   86  64  47 W9        30.01F HX  87
SPARTA         PTSUNNY   80  58  47 NW7       30.03S HX  81
VIROQUA        MOSUNNY   81  63  54 N8        30.05S HX  82
BOSCOBEL       MOSUNNY   83  60  45 VRB6      30.01S HX  83
PRAIRIE DU CHI SUNNY     82  56  40 N5        30.01S HX  81
PLATTEVILLE    MOSUNNY   80  64  58 N8        30.01S HX  81
$$

WIZ056-057-062-063-064-067-068-272100-
SOUTH CENTRAL WISCONSIN

CITY           SKY/WX    TMP DP  RH WIND       PRES   REMARKS
REEDSBURG      MOSUNNY   81  62  51 NE5       30.02S HX  82
BARABOO/DELLS  MOSUNNY   81  57  43 CALM      30.02F HX  81
LONE ROCK      NOT AVBL
MINERAL POINT  SUNNY     81  59  47 NE9       30.02S HX  81
MADISON        PTSUNNY   82  62  50 N13       30.00S HX  83
MIDDLETON      MOSUNNY   82  62  50 NE12      30.01S HX  83
WATERTOWN      MOSUNNY   81  64  55 NE10      29.99S HX  82
MONROE         MOSUNNY   79  63  57 NE12      30.00S HX  80
JANESVILLE     MOSUNNY   82  63  51 NE12      29.98S HX  83
$$

WIZ051-052-058>065-066-070>072-272100-
SOUTHEAST WISCONSIN

CITY           SKY/WX    TMP DP  RH WIND       PRES   REMARKS
MILWAUKEE      MOSUNNY   77  59  53 N16       29.99S
WAUKESHA       MOSUNNY   79  57  47 NE12G18   30.01R HX  80
MILWAUKEE/TIMM SUNNY     79  54  41 NE14G22   30.01R
RACINE         SUNNY     76  64  66 N17G25    30.00R
KENOSHA        SUNNY     80  61  52 NE14G20   29.98S HX  81
FOND DU LAC    SUNNY     82  59  45 NE10      30.02R HX  82
SHEBOYGAN      SUNNY     77  60  55 NE14G22   30.02R
WEST BEND      SUNNY     77  55  47 NE15G24   30.01R
JUNEAU         MOSUNNY   80  64  58 N8        30.02S HX  81
$$

LSZ147-162-272100-
LAKE SUPERIOR

STATION/POSITION TIME  TEMP    WIND        PRES    WAVE
                       AIR SEA DIR/SP/G            HT/PER
                 (UTC) (F)     (DEG/KT/KT) (MB)    (FT/S)
W MID LAKE BUOY  1850   56 53   40/  8/  8 1019.3F   0
DEVILS ISLAND    1900   61      30/  9/  9 1019.5S
SAXON HARBOR     1940   71      20/  4/  4 1019.0R
$$

LMZ867-665-643>646-272100-
LAKE MICHIGAN

STATION/POSITION TIME  TEMP    WIND        PRES    WAVE
                       AIR SEA DIR/SP/G            HT/PER
                 (UTC) (F)     (DEG/KT/KT) (MB)    (FT/S)
CHAMBERS ISLAND  1940   73      70/  5/  8 1016.3S
S GREEN BAY BUOY 1900   72 72   70/ 12/ 16 1016.4F
N MID LAKE BUOY  1850   67 68   CALM  /  2 1017.3F   1/ 3
NORTHPORT PIER   1940   74     320/  5/  6 1016.3F
KEWAUNEE LAKESHO 1930   72      40/  3/ 10 1016.1F
SHEBOYGAN LAKESH 1900   69      10/ 15/ 16 1015.8F
PORT WASHINGTON  1930   78      40/ 13/ 20 1016.6R
ATWATER BUOY     1809   69 69   10/ 16/ 19 1015.9R
MILWAUKEE LAKESH 1930   72      10/ 16/ 19   N/A
S MID LAKE BUOY  1850   70 71   10/ 14/ 17 1014.0F   1/ 3
KENOSHA   LAKESH 1900   70      30/ 17/ 20 1014.6
$$

TC  - TEMPERATURE IN CELSIUS
VSB - VISIBILITY IN STATUTE MILES
WCI - WIND CHILL INDEX
HX  - HEAT INDEX





USA.gov is the U.S. government's official web portal to all federal, state and local government web resources and services.